FW4110 Weather Reports


Display with metric or nautical units.
time (UTC)temp
F
wind
direction
speed
MPH
gust
MPH
rain 1hr
in
rain 24hr
in
rain mn
in
humidity
%
barometer
mb
20260831000043 88 178 2.0 4.0 0.00 0.00 0.00 70 1016.4
20260830234539 89 263 3.0 7.0 0.00 0.00 0.00 69 1016.5
20260830233040 90 176 3.0 10.0 0.00 0.00 0.00 68 1016.7
20260830231535 92 162 2.0 7.0 0.00 0.00 0.00 65 1016.7
20260830230033 93 185 3.0 8.0 0.00 0.00 0.00 64 1016.6
20260830224530 93 262 4.0 9.0 0.00 0.00 0.00 63 1016.5
20260830223033 94 204 1.0 8.0 0.00 0.00 0.00 61 1016.5
20260830221626 95 199 2.0 8.0 0.00 0.00 0.00 61 1016.5
20260830220024 95 163 1.0 4.0 0.00 0.00 0.00 61 1016.4
20260830214522 95 160 3.0 7.0 0.00 0.00 0.00 60 1016.4
20260830213016 95 261 2.0 6.0 0.00 0.00 0.00 60 1016.5
20260830211513 95 225 1.0 6.0 0.00 0.00 0.00 59 1016.6
20260830210010 95 177 3.0 8.0 0.00 0.00 0.00 59 1016.7
20260830204504 95 145 2.0 10.0 0.00 0.00 0.00 58 1016.8
20260830203100 95 214 2.0 9.0 0.00 0.00 0.00 59 1016.9
20260830201603 95 234 1.0 9.0 0.00 0.00 0.00 58 1017.0
20260830200052 95 267 1.0 7.0 0.00 0.00 0.00 59 1017.3
20260830194548 95 179 4.0 8.0 0.00 0.00 0.00 58 1017.5
20260830193045 94 149 0.0 6.0 0.00 0.00 0.00 59 1017.6
20260830191542 94 196 1.0 8.0 0.00 0.00 0.00 59 1017.8
20260830190038 94 276 1.0 9.0 0.00 0.00 0.00 60 1017.9
20260830184539 93 184 2.0 7.0 0.00 0.00 0.00 59 1018.0
20260830183031 93 159 5.0 9.0 0.00 0.00 0.00 61 1017.9
20260830181526 93 88 2.0 10.0 0.00 0.00 0.00 59 1018.1
20260830180021 92 294 3.0 12.0 0.00 0.00 0.00 61 1018.3
20260830174519 91 178 4.0 8.0 0.00 0.00 0.00 62 1018.5
20260830173014 92 268 0.0 4.0 0.00 0.00 0.00 61 1018.9
20260830171509 90 317 2.0 9.0 0.00 0.00 0.00 63 1018.8
20260830170007 90 243 3.0 9.0 0.00 0.00 0.00 62 1019.0
20260830164503 89 270 3.0 8.0 0.00 0.00 0.00 62 1019.2
20260830163103 88 270 4.0 10.0 0.00 0.00 0.00 63 1019.1
20260830161618 88 189 2.0 7.0 0.00 0.00 0.00 64 1019.2
20260830160054 87 280 2.0 10.0 0.00 0.00 0.00 68 1019.2
20260830154548 86 246 2.0 9.0 0.00 0.00 0.00 67 1019.2
20260830153044 85 259 3.0 11.0 0.00 0.00 0.00 69 1019.0
20260830151540 84 182 2.0 6.0 0.00 0.00 0.00 71 1018.9
20260830150105 83 187 4.0 8.0 0.00 0.00 0.00 70 1018.9
20260830144533 82 273 3.0 11.0 0.00 0.00 0.00 72 1019.0
20260830143026 81 125 0.0 6.0 0.00 0.00 0.00 74 1018.9
20260830141521 80 261 1.0 6.0 0.00 0.00 0.00 75 1019.0
20260830140016 79 277 2.0 6.0 0.00 0.00 0.00 76 1019.0
20260830134521 78 185 2.0 4.0 0.00 0.00 0.00 76 1019.0
20260830133007 76 171 2.0 5.0 0.00 0.00 0.00 77 1019.1
20260830131601 74 150 0.0 0.0 0.00 0.00 0.00 78 1019.2
20260830130108 72 149 0.0 0.0 0.00 0.00 0.00 79 1019.3
20260830124553 70 182 0.0 0.0 0.00 0.00 0.00 80 1019.4
20260830123050 67 179 0.0 0.0 0.00 0.00 0.00 85 1019.4
20260830121552 67 156 0.0 2.0 0.00 0.00 0.00 84 1019.4
20260830120041 0 0.0 0.0 0.00 0.00 0.00 1019.3
20260830114540 0 0.0 0.0 0.00 0.00 0.00 1019.1
20260830113031 0 0.0 0.0 0.00 0.00 0.00 1019.4
20260830111526 0 0.0 0.0 0.00 0.00 0.00 1019.0
20260830110026 0 0.0 0.0 0.00 0.00 0.00 1018.8
20260830104516 0 0.0 0.0 0.00 0.00 0.00 1019.0
20260830103012 68 149 1.0 4.0 0.00 0.00 0.00 85 1019.0
20260830101532 68 160 3.0 5.0 0.00 0.00 0.00 86 1018.8
20260830100007 68 147 2.0 7.0 0.00 0.00 0.00 86 1018.7
20260830094506 68 171 2.0 4.0 0.00 0.00 0.00 86 1018.8
20260830093101 68 185 3.0 5.0 0.00 0.00 0.00 86 1018.7
20260830091558 68 167 2.0 5.0 0.00 0.00 0.00 86 1018.8
20260830090112 69 190 3.0 5.0 0.00 0.00 0.00 86 1018.9
20260830084557 69 159 4.0 8.0 0.00 0.00 0.00 87 1018.7
20260830083054 69 169 4.0 8.0 0.00 0.00 0.00 87 1018.9
20260830081545 69 151 3.0 6.0 0.00 0.00 0.00 87 1019.1
20260830080042 70 173 2.0 7.0 0.00 0.00 0.00 87 1019.3
20260830074640 70 162 3.0 6.0 0.00 0.00 0.00 87 1019.1
20260830073037 70 156 3.0 6.0 0.00 0.00 0.00 87 1019.1
20260830071531 70 149 2.0 5.0 0.00 0.00 0.00 87 1019.2
20260830070028 71 155 2.0 5.0 0.00 0.00 0.00 87 1019.3
20260830064532 71 168 3.0 6.0 0.00 0.00 0.00 87 1019.2
20260830063024 71 152 2.0 6.0 0.00 0.00 0.00 87 1019.2
20260830061522 71 178 3.0 6.0 0.00 0.00 0.00 87 1019.3
20260830060018 72 158 3.0 6.0 0.00 0.00 0.00 87 1019.3
20260830054516 72 167 2.0 6.0 0.00 0.00 0.00 87 1019.2
20260830053012 72 165 2.0 5.0 0.00 0.00 0.00 87 1019.2
20260830051509 72 172 1.0 5.0 0.00 0.00 0.00 87 1019.3
20260830050009 73 166 0.0 4.0 0.00 0.00 0.00 87 1019.4
20260830044510 73 156 1.0 5.0 0.00 0.00 0.00 87 1019.3
20260830043004 73 168 2.0 4.0 0.00 0.00 0.00 86 1019.4
20260830041500 74 146 1.0 5.0 0.00 0.00 0.00 86 1019.3
20260830034601 75 173 2.0 5.0 0.00 0.00 0.00 85 1019.2
20260830033054 75 161 2.0 6.0 0.00 0.00 0.00 85 1019.1
20260830031555 75 168 3.0 5.0 0.00 0.00 0.00 85 1019.1
20260830030127 75 163 1.0 3.0 0.00 0.00 0.00 84 1019.1
20260830024550 76 156 1.0 5.0 0.00 0.00 0.00 84 1019.2
20260830023047 76 158 1.0 4.0 0.00 0.00 0.00 83 1019.1
20260830021545 76 161 2.0 4.0 0.00 0.00 0.00 83 1018.9
20260830020044 76 170 1.0 5.0 0.00 0.00 0.00 83 1018.7
20260830014603 76 166 2.0 4.0 0.00 0.00 0.00 83 1018.5
20260830013056 76 143 0.0 3.0 0.00 0.00 0.00 83 1018.6
20260830011542 76 152 1.0 4.0 0.00 0.00 0.00 83 1018.4
20260830010039 77 187 1.0 4.0 0.00 0.00 0.00 82 1018.3
20260830004536 77 152 0.0 2.0 0.00 0.00 0.00 82 1018.4
20260830003046 78 234 0.0 1.0 0.00 0.00 0.00 81 1018.5
20260830001529 79 193 0.0 1.0 0.00 0.00 0.00 80 1018.6